sat.trackr.live / text

‹ back to catalog

STARLINK-35313

NORAD 65758 · 2025-216AA

PAYLOAD ACTIVE UNKNOWN

§ Identity

Operator
Country
US
Launch date
2025-09-25
Launch site
AFETR
Launch vehicle
Mass (kg)
RCS (m²)

Purposes: comms

External: N2YO · Heavens-Above · Gunter

§ Orbital elements

Epoch: 2026-09-20T23:11:28.741632Z

Period
93.85 min
Inclination
53.1601°
Eccentricity
0.0002523
Mean motion
15.34415092 rev/d
Perigee alt
460.9 km
Apogee alt
464.4 km
Semi-major
6,840.8 km
B*
6.0551e-4
RAAN
143.5516°
Arg perigee
89.4692°
Mean anomaly
270.6599°
Rev number
5,643

§ Raw data

STARLINK-353131 65758U 25216AA  26263.96630488  .00020147  00000+0  60551-3 0  99932 65758  53.1601 143.5516 0002523  89.4692 270.6599 15.34415092 56434

JSON: /api/v1/satellites/65758 · /tle

For live sub-satellite position, see the globe view (requires WebGL).

§ Visibility from observer

Set your observer location to see the next 7 days of passes ≥ 10°. The values pass through the URL so the page stays shareable.

No JS? Fill the form by hand. The geolocation button needs JavaScript.